| time (UTC) | temp F | wind direction | speed knots | gust knots | rain 1hr in | rain 24hr in | rain mn in | humidity % | barometer mb |
| 20260510183100 | 79 | 212 | 0.9 | 2.6 | 0.00 | 0.00 | 0.00 | 34 | 1014.6 |
| 20260510181602 | 79 | 206 | 0.0 | 1.7 | 0.00 | 0.00 | 0.00 | 38 | 1014.8 |
| 20260510180117 | 79 | 320 | 0.0 | 2.6 | 0.00 | 0.00 | 0.00 | 34 | 1015.0 |
| 20260510174555 | 78 | 32 | 0.0 | 2.6 | 0.00 | 0.00 | 0.00 | 38 | 1015.0 |
| 20260510173054 | 78 | 288 | 0.0 | 2.6 | 0.00 | 0.00 | 0.00 | 36 | 1015.2 |
| 20260510171559 | 78 | 352 | 0.9 | 5.2 | 0.00 | 0.00 | 0.00 | 41 | 1015.3 |
| 20260510170054 | 78 | 23 | 0.0 | 3.5 | 0.00 | 0.00 | 0.00 | 38 | 1015.4 |
| 20260510164558 | 78 | 347 | 0.9 | 5.2 | 0.00 | 0.00 | 0.00 | 36 | 1015.5 |
| 20260510163116 | 78 | 287 | 0.0 | 2.6 | 0.00 | 0.00 | 0.00 | 38 | 1015.5 |
| 20260510161600 | 78 | 342 | 1.7 | 7.0 | 0.00 | 0.00 | 0.00 | 38 | 1015.7 |
| 20260510160058 | 78 | 51 | 0.9 | 0.0 | 0.00 | 0.00 | 0.00 | 37 | 1015.8 |
| 20260510154549 | 78 | 253 | 0.0 | 3.5 | 0.00 | 0.00 | 0.00 | 41 | 1015.6 |
| 20260510153051 | 77 | 323 | 0.0 | 5.2 | 0.00 | 0.00 | 0.00 | 42 | 1015.7 |
| 20260510151546 | 76 | 270 | 0.0 | 3.5 | 0.00 | 0.00 | 0.00 | 44 | 1015.8 |
| 20260510150040 | 75 | 37 | 0.9 | 5.2 | 0.00 | 0.00 | 0.00 | 47 | 1016.0 |
| 20260510144543 | 75 | 31 | 0.9 | 5.2 | 0.00 | 0.00 | 0.00 | 50 | 1016.0 |
| 20260510143047 | 74 | 355 | 0.9 | 5.2 | 0.00 | 0.00 | 0.00 | 49 | 1015.9 |
| 20260510141536 | 73 | 20 | 1.7 | 4.3 | 0.00 | 0.00 | 0.00 | 60 | 1015.8 |
| 20260510140030 | 71 | 258 | 0.0 | 2.6 | 0.00 | 0.00 | 0.00 | 66 | 1015.8 |
| 20260510134523 | 70 | 285 | 0.0 | 4.3 | 0.00 | 0.00 | 0.00 | 73 | 1015.8 |
| 20260510133030 | 68 | 243 | 0.0 | 6.1 | 0.00 | 0.00 | 0.00 | 75 | 1015.8 |
| 20260510131514 | 66 | 265 | 0.0 | 0.9 | 0.00 | 0.00 | 0.00 | 81 | 1015.9 |
| 20260510130010 | 64 | 358 | 0.0 | 4.3 | 0.00 | 0.00 | 0.00 | 81 | 1015.9 |
| 20260510124507 | 62 | 193 | 0.0 | 0.0 | 0.00 | 0.00 | 0.00 | 72 | 1015.7 |
| 20260510123005 | 61 | 193 | 0.0 | 0.0 | 0.00 | 0.00 | 0.00 | 70 | 1015.6 |
| 20260510121559 | 60 | 193 | 0.0 | 0.0 | 0.00 | 0.00 | 0.00 | 70 | 1015.3 |
| 20260510120057 | 58 | 193 | 0.0 | 0.0 | 0.00 | 0.00 | 0.00 | 70 | 1015.2 |
| 20260510114555 | 57 | 193 | 0.0 | 0.0 | 0.00 | 0.00 | 0.00 | 71 | 1014.7 |
| 20260510113103 | 55 | 193 | 0.0 | 0.0 | 0.00 | 0.00 | 0.00 | 72 | 1014.6 |
| 20260510111556 | 54 | 193 | 0.0 | 0.0 | 0.00 | 0.00 | 0.00 | 72 | 1014.3 |
| 20260510110048 | 54 | 193 | 0.0 | 0.0 | 0.00 | 0.00 | 0.00 | 72 | 1014.0 |
| 20260510104555 | 55 | 193 | 0.0 | 0.0 | 0.00 | 0.00 | 0.00 | 72 | 1013.7 |
| 20260510103049 | 55 | 193 | 0.0 | 0.0 | 0.00 | 0.00 | 0.00 | 72 | 1013.6 |
| 20260510101542 | 55 | 193 | 0.0 | 0.0 | 0.00 | 0.00 | 0.00 | 72 | 1013.2 |
| 20260510100041 | 55 | 193 | 0.0 | 0.0 | 0.00 | 0.00 | 0.00 | 72 | 1013.1 |
| 20260510094541 | 55 | 193 | 0.0 | 0.0 | 0.00 | 0.00 | 0.00 | 72 | 1013.0 |
| 20260510093052 | 55 | 193 | 0.0 | 0.9 | 0.00 | 0.00 | 0.00 | 73 | 1012.9 |
| 20260510091537 | 56 | 193 | 0.0 | 0.0 | 0.00 | 0.00 | 0.00 | 73 | 1012.8 |
| 20260510090037 | 56 | 193 | 0.0 | 0.0 | 0.00 | 0.00 | 0.00 | 72 | 1012.7 |
| 20260510084536 | 56 | 193 | 0.0 | 0.0 | 0.00 | 0.00 | 0.00 | 72 | 1012.5 |
| 20260510083038 | 57 | 193 | 0.0 | 0.0 | 0.00 | 0.00 | 0.00 | 72 | 1012.7 |
| 20260510081541 | 56 | 193 | 0.0 | 0.0 | 0.00 | 0.00 | 0.00 | 72 | 1012.4 |
| 20260510080030 | 57 | 193 | 0.0 | 0.0 | 0.00 | 0.00 | 0.00 | 72 | 1012.2 |
| 20260510074530 | 57 | 193 | 0.0 | 0.0 | 0.00 | 0.00 | 0.00 | 73 | 1012.2 |
| 20260510073028 | 57 | 193 | 0.0 | 0.0 | 0.00 | 0.00 | 0.00 | 73 | 1012.3 |
| 20260510071528 | 57 | 193 | 0.0 | 0.0 | 0.00 | 0.00 | 0.00 | 72 | 1012.2 |
| 20260510070026 | 57 | 193 | 0.0 | 0.0 | 0.00 | 0.00 | 0.00 | 73 | 1012.1 |
| 20260510064535 | 57 | 193 | 0.0 | 0.0 | 0.00 | 0.00 | 0.00 | 73 | 1012.1 |
| 20260510063036 | 57 | 193 | 0.0 | 0.0 | 0.00 | 0.00 | 0.00 | 74 | 1012.1 |
| 20260510061527 | 58 | 193 | 0.0 | 0.0 | 0.00 | 0.00 | 0.00 | 74 | 1012.2 |
| 20260510060035 | 58 | 193 | 0.0 | 0.0 | 0.00 | 0.00 | 0.00 | 73 | 1012.1 |
| 20260510054523 | 58 | 193 | 0.0 | 0.0 | 0.00 | 0.00 | 0.00 | 74 | 1012.2 |
| 20260510053034 | 58 | 193 | 0.0 | 0.0 | 0.00 | 0.00 | 0.00 | 74 | 1012.4 |
| 20260510051522 | 58 | 193 | 0.0 | 0.0 | 0.00 | 0.00 | 0.00 | 74 | 1012.4 |
| 20260510050016 | 58 | 193 | 0.0 | 0.0 | 0.00 | 0.00 | 0.00 | 74 | 1012.6 |
| 20260510044533 | 58 | 193 | 0.0 | 0.0 | 0.00 | 0.00 | 0.00 | 75 | 1012.6 |
| 20260510043014 | 59 | 193 | 0.0 | 0.0 | 0.00 | 0.00 | 0.00 | 75 | 1012.5 |
| 20260510041511 | 59 | 193 | 0.0 | 0.0 | 0.00 | 0.00 | 0.00 | 75 | 1012.7 |
| 20260510040008 | 59 | 193 | 0.0 | 0.0 | 0.00 | 0.00 | 0.00 | 76 | 1012.6 |
| 20260510034510 | 59 | 193 | 0.0 | 0.0 | 0.00 | 0.00 | 0.00 | 76 | 1012.6 |
| 20260510033008 | 59 | 193 | 0.0 | 0.0 | 0.00 | 0.00 | 0.00 | 77 | 1012.6 |
| 20260510031508 | 59 | 193 | 0.0 | 0.0 | 0.00 | 0.00 | 0.00 | 78 | 1012.6 |
| 20260510030008 | 60 | 193 | 0.0 | 0.0 | 0.00 | 0.00 | 0.00 | 79 | 1012.5 |
| 20260510024508 | 60 | 193 | 0.0 | 0.0 | 0.00 | 0.00 | 0.00 | 80 | 1012.4 |
| 20260510023007 | 60 | 193 | 0.0 | 0.0 | 0.00 | 0.00 | 0.00 | 80 | 1012.3 |
| 20260510021506 | 61 | 193 | 0.0 | 0.0 | 0.00 | 0.00 | 0.00 | 82 | 1012.1 |
| 20260510020005 | 61 | 193 | 0.0 | 0.0 | 0.00 | 0.00 | 0.00 | 82 | 1012.2 |
| 20260510014505 | 62 | 193 | 0.0 | 0.0 | 0.00 | 0.00 | 0.00 | 82 | 1012.0 |
| 20260510013103 | 62 | 193 | 0.0 | 0.0 | 0.00 | 0.00 | 0.00 | 82 | 1011.8 |
| 20260510011503 | 62 | 193 | 0.0 | 0.0 | 0.00 | 0.00 | 0.00 | 82 | 1011.5 |
| 20260510004501 | 64 | 193 | 0.0 | 0.0 | 0.00 | 0.00 | 0.00 | 81 | 1010.7 |
| 20260510003105 | 65 | 193 | 0.0 | 0.0 | 0.00 | 0.00 | 0.00 | 81 | 1010.7 |
| 20260510001600 | 66 | 193 | 0.0 | 0.0 | 0.00 | 0.00 | 0.00 | 80 | 1010.5 |
| 20260509234600 | 68 | 193 | 0.0 | 0.9 | 0.00 | 0.00 | 0.00 | 78 | 1010.3 |
| 20260509233104 | 68 | 195 | 0.0 | 1.7 | 0.00 | 0.00 | 0.00 | 77 | 1010.2 |
| 20260509231557 | 69 | 200 | 0.0 | 1.7 | 0.00 | 0.00 | 0.00 | 77 | 1009.9 |
| 20260509230058 | 69 | 198 | 0.0 | 1.7 | 0.00 | 0.00 | 0.00 | 77 | 1010.0 |
| 20260509224556 | 69 | 179 | 0.0 | 1.7 | 0.00 | 0.00 | 0.00 | 77 | 1009.8 |
| 20260509223100 | 70 | 188 | 0.0 | 2.6 | 0.00 | 0.00 | 0.00 | 76 | 1009.7 |
| 20260509221555 | 70 | 174 | 1.7 | 4.3 | 0.00 | 0.00 | 0.00 | 75 | 1009.6 |
| 20260509220056 | 69 | 191 | 0.0 | 2.6 | 0.00 | 0.00 | 0.00 | 76 | 1009.7 |
| 20260509214553 | 69 | 167 | 0.0 | 2.6 | 0.00 | 0.00 | 0.00 | 76 | 1009.7 |
| 20260509213054 | 69 | 155 | 0.9 | 2.6 | 0.00 | 0.00 | 0.00 | 75 | 1009.7 |
| 20260509211552 | 70 | 169 | 2.6 | 4.3 | 0.00 | 0.00 | 0.00 | 74 | 1009.8 |
| 20260509210051 | 70 | 172 | 0.0 | 3.5 | 0.00 | 0.00 | 0.00 | 75 | 1009.6 |
| 20260509204550 | 70 | 200 | 0.0 | 2.6 | 0.00 | 0.00 | 0.00 | 74 | 1009.4 |
| 20260509203049 | 70 | 200 | 0.0 | 2.6 | 0.00 | 0.00 | 0.00 | 72 | 1009.8 |
| 20260509201556 | 70 | 191 | 0.0 | 3.5 | 0.00 | 0.00 | 0.00 | 73 | 1009.6 |
| 20260509200057 | 70 | 284 | 0.0 | 1.7 | 0.00 | 0.00 | 0.00 | 73 | 1009.9 |
| 20260509194542 | 70 | 217 | 0.0 | 1.7 | 0.00 | 0.00 | 0.00 | 73 | 1010.1 |
| 20260509193059 | 69 | 214 | 0.0 | 2.6 | 0.00 | 0.00 | 0.00 | 73 | 1010.4 |
| 20260509191541 | 69 | 205 | 0.0 | 1.7 | 0.00 | 0.00 | 0.00 | 75 | 1010.6 |
| 20260509190039 | 68 | 203 | 0.0 | 0.9 | 0.00 | 0.00 | 0.00 | 75 | 1010.7 |
| 20260509184545 | 69 | 203 | 0.0 | 2.6 | 0.00 | 0.00 | 0.00 | 76 | 1010.5 |